Year,Month,Day,Hour,Minute,Value (Times are PST for temperature in C)
2018,07,21,00,00,14.50
2018,07,21,00,01,14.50
2018,07,21,00,02,14.50
2018,07,21,00,03,14.50
2018,07,21,00,04,14.50
2018,07,21,00,05,14.50
2018,07,21,00,06,14.50
2018,07,21,00,07,14.50
2018,07,21,00,08,14.50
2018,07,21,00,09,14.50
2018,07,21,00,10,14.50
2018,07,21,00,11,14.50
2018,07,21,00,12,14.50
2018,07,21,00,13,14.50
2018,07,21,00,14,14.50
2018,07,21,00,15,14.50
2018,07,21,00,16,14.50
2018,07,21,00,17,14.60
2018,07,21,00,18,14.60
2018,07,21,00,19,14.60
2018,07,21,00,20,14.60
2018,07,21,00,21,14.60
2018,07,21,00,22,14.70
2018,07,21,00,23,14.70
2018,07,21,00,24,14.70
2018,07,21,00,25,14.70
2018,07,21,00,26,14.70
2018,07,21,00,27,14.70
2018,07,21,00,28,14.70
2018,07,21,00,29,14.70
2018,07,21,00,30,14.70
2018,07,21,00,31,14.70
2018,07,21,00,32,14.70
2018,07,21,00,33,14.70
2018,07,21,00,34,14.60
2018,07,21,00,35,14.60
2018,07,21,00,36,14.60
2018,07,21,00,37,14.60
2018,07,21,00,38,14.60
2018,07,21,00,39,14.60
2018,07,21,00,40,14.60
2018,07,21,00,41,14.60
2018,07,21,00,42,14.60
2018,07,21,00,43,14.60
2018,07,21,00,44,14.60
2018,07,21,00,45,14.60
2018,07,21,00,46,14.60
2018,07,21,00,47,14.60
2018,07,21,00,48,14.50
2018,07,21,00,49,14.50
2018,07,21,00,50,14.50
2018,07,21,00,51,14.50
2018,07,21,00,52,14.40
2018,07,21,00,53,14.40
2018,07,21,00,54,14.40
2018,07,21,00,55,14.40
2018,07,21,00,56,14.40
2018,07,21,00,57,14.30
2018,07,21,00,58,14.30
2018,07,21,00,59,14.30
2018,07,21,01,00,14.30
2018,07,21,01,01,14.30
2018,07,21,01,02,14.30
2018,07,21,01,03,14.20
2018,07,21,01,04,14.20
2018,07,21,01,05,14.20
2018,07,21,01,06,14.20
2018,07,21,01,07,14.20
2018,07,21,01,08,14.20
2018,07,21,01,09,14.20
2018,07,21,01,10,14.10
2018,07,21,01,11,14.10
2018,07,21,01,12,14.10
2018,07,21,01,13,14.10
2018,07,21,01,14,14.00
2018,07,21,01,15,14.00
2018,07,21,01,16,14.00
2018,07,21,01,17,13.90
2018,07,21,01,18,13.90
2018,07,21,01,19,13.90
2018,07,21,01,20,13.90
2018,07,21,01,21,13.80
2018,07,21,01,22,13.80
2018,07,21,01,23,13.80
2018,07,21,01,24,13.80
2018,07,21,01,25,13.70
2018,07,21,01,26,13.70
2018,07,21,01,27,13.70
2018,07,21,01,28,13.70
2018,07,21,01,29,13.60
2018,07,21,01,30,13.60
2018,07,21,01,31,13.60
2018,07,21,01,32,13.50
2018,07,21,01,33,13.50
2018,07,21,01,34,13.40
2018,07,21,01,35,13.40
2018,07,21,01,36,13.40
2018,07,21,01,37,13.40
2018,07,21,01,38,13.40
2018,07,21,01,39,13.30
2018,07,21,01,40,13.30
2018,07,21,01,41,13.30
2018,07,21,01,42,13.30
2018,07,21,01,43,13.30
2018,07,21,01,44,13.30
2018,07,21,01,45,13.30
2018,07,21,01,46,13.30
2018,07,21,01,47,13.20
2018,07,21,01,48,13.20
2018,07,21,01,49,13.20
2018,07,21,01,50,13.20
2018,07,21,01,51,13.20
2018,07,21,01,52,13.20
2018,07,21,01,53,13.20
2018,07,21,01,54,13.20
2018,07,21,01,55,13.20
2018,07,21,01,56,13.10
2018,07,21,01,57,13.10
2018,07,21,01,58,13.10
2018,07,21,01,59,13.10
2018,07,21,02,00,13.10
2018,07,21,02,01,13.10
2018,07,21,02,02,13.10
2018,07,21,02,03,13.10
2018,07,21,02,04,13.10
2018,07,21,02,05,13.10
2018,07,21,02,06,13.10
2018,07,21,02,07,13.10
2018,07,21,02,08,13.10
2018,07,21,02,09,13.10
2018,07,21,02,10,13.10
2018,07,21,02,11,13.10
2018,07,21,02,12,13.10
2018,07,21,02,13,13.10
2018,07,21,02,14,13.00
2018,07,21,02,15,13.00
2018,07,21,02,16,13.00
2018,07,21,02,17,12.90
2018,07,21,02,18,12.90
2018,07,21,02,19,12.90
2018,07,21,02,20,12.90
2018,07,21,02,21,12.80
2018,07,21,02,22,12.80
2018,07,21,02,23,12.80
2018,07,21,02,24,12.80
2018,07,21,02,25,12.80
2018,07,21,02,26,12.80
2018,07,21,02,27,12.70
2018,07,21,02,28,12.70
2018,07,21,02,29,12.70
2018,07,21,02,30,12.70
2018,07,21,02,31,12.70
2018,07,21,02,32,12.70
2018,07,21,02,33,12.70
2018,07,21,02,34,12.60
2018,07,21,02,35,12.60
2018,07,21,02,36,12.60
2018,07,21,02,37,12.60
2018,07,21,02,38,12.60
2018,07,21,02,39,12.50
2018,07,21,02,40,12.50
2018,07,21,02,41,12.50
2018,07,21,02,42,12.50
2018,07,21,02,43,12.50
2018,07,21,02,44,12.50
2018,07,21,02,45,12.50
2018,07,21,02,46,12.40
2018,07,21,02,47,12.40
2018,07,21,02,48,12.40
2018,07,21,02,49,12.40
2018,07,21,02,50,12.40
2018,07,21,02,51,12.40
2018,07,21,02,52,12.40
2018,07,21,02,53,12.30
2018,07,21,02,54,12.30
2018,07,21,02,55,12.30
2018,07,21,02,56,12.30
2018,07,21,02,57,12.30
2018,07,21,02,58,12.30
2018,07,21,02,59,12.20
2018,07,21,03,00,12.20
2018,07,21,03,01,12.20
2018,07,21,03,02,12.10
2018,07,21,03,03,12.10
2018,07,21,03,04,12.10
2018,07,21,03,05,12.10
2018,07,21,03,06,12.10
2018,07,21,03,07,12.10
2018,07,21,03,08,12.00
2018,07,21,03,09,12.00
2018,07,21,03,10,12.00
2018,07,21,03,11,12.00
2018,07,21,03,12,12.00
2018,07,21,03,13,12.00
2018,07,21,03,14,12.00
2018,07,21,03,15,12.00
2018,07,21,03,16,12.00
2018,07,21,03,17,12.00
2018,07,21,03,18,12.10
2018,07,21,03,19,12.10
2018,07,21,03,20,12.10
2018,07,21,03,21,12.10
2018,07,21,03,22,12.10
2018,07,21,03,23,12.10
2018,07,21,03,24,12.10
2018,07,21,03,25,12.10
2018,07,21,03,26,12.10
2018,07,21,03,27,12.10
2018,07,21,03,28,12.10
2018,07,21,03,29,12.10
2018,07,21,03,30,12.10
2018,07,21,03,31,12.10
2018,07,21,03,32,12.20
2018,07,21,03,33,12.20
2018,07,21,03,34,12.20
2018,07,21,03,35,12.20
2018,07,21,03,36,12.20
2018,07,21,03,37,12.20
2018,07,21,03,38,12.20
2018,07,21,03,39,12.20
2018,07,21,03,40,12.20
2018,07,21,03,41,12.20
2018,07,21,03,42,12.20
2018,07,21,03,43,12.10
2018,07,21,03,44,12.10
2018,07,21,03,45,12.10
2018,07,21,03,46,12.10
2018,07,21,03,47,12.10
2018,07,21,03,48,12.10
2018,07,21,03,49,12.00
2018,07,21,03,50,12.00
2018,07,21,03,51,12.00
2018,07,21,03,52,12.00
2018,07,21,03,53,12.00
2018,07,21,03,54,12.00
2018,07,21,03,55,12.00
2018,07,21,03,56,12.00
2018,07,21,03,57,12.00
2018,07,21,03,58,12.00
2018,07,21,03,59,12.00
2018,07,21,04,00,12.00
2018,07,21,04,01,11.90
2018,07,21,04,02,11.90
2018,07,21,04,03,11.90
2018,07,21,04,04,11.90
2018,07,21,04,05,11.90
2018,07,21,04,06,11.90
2018,07,21,04,07,11.90
2018,07,21,04,08,11.80
2018,07,21,04,09,11.80
2018,07,21,04,10,11.80
2018,07,21,04,11,11.80
2018,07,21,04,12,11.80
2018,07,21,04,13,11.80
2018,07,21,04,14,11.80
2018,07,21,04,15,11.70
2018,07,21,04,16,11.80
2018,07,21,04,17,11.80
2018,07,21,04,18,11.80
2018,07,21,04,19,11.80
2018,07,21,04,20,11.80
2018,07,21,04,21,11.80
2018,07,21,04,22,11.80
2018,07,21,04,23,11.80
2018,07,21,04,24,11.80
2018,07,21,04,25,11.80
2018,07,21,04,26,11.80
2018,07,21,04,27,11.80
2018,07,21,04,28,11.80
2018,07,21,04,29,11.80
2018,07,21,04,30,11.80
2018,07,21,04,31,11.80
2018,07,21,04,32,11.80
2018,07,21,04,33,11.80
2018,07,21,04,34,11.80
2018,07,21,04,35,11.90
2018,07,21,04,36,11.90
2018,07,21,04,37,11.90
2018,07,21,04,38,11.90
2018,07,21,04,39,11.90
2018,07,21,04,40,11.90
2018,07,21,04,41,11.90
2018,07,21,04,42,11.90
2018,07,21,04,43,11.80
2018,07,21,04,44,11.80
2018,07,21,04,45,11.80
2018,07,21,04,46,11.80
2018,07,21,04,47,11.70
2018,07,21,04,48,11.70
2018,07,21,04,49,11.70
2018,07,21,04,50,11.60
2018,07,21,04,51,11.60
2018,07,21,04,52,11.60
2018,07,21,04,53,11.50
2018,07,21,04,54,11.50
2018,07,21,04,55,11.50
2018,07,21,04,56,11.40
2018,07,21,04,57,11.40
2018,07,21,04,58,11.40
2018,07,21,04,59,11.40
2018,07,21,05,00,11.40
2018,07,21,05,01,11.40
2018,07,21,05,02,11.40
2018,07,21,05,03,11.30
2018,07,21,05,04,11.30
2018,07,21,05,05,11.30
2018,07,21,05,06,11.30
2018,07,21,05,07,11.40
2018,07,21,05,08,11.40
2018,07,21,05,09,11.40
2018,07,21,05,10,11.40
2018,07,21,05,11,11.40
2018,07,21,05,12,11.40
2018,07,21,05,13,11.40
2018,07,21,05,14,11.40
2018,07,21,05,15,11.40
2018,07,21,05,16,11.50
2018,07,21,05,17,11.50
2018,07,21,05,18,11.50
2018,07,21,05,19,11.60
2018,07,21,05,20,11.60
2018,07,21,05,21,11.60
2018,07,21,05,22,11.70
2018,07,21,05,23,11.70
2018,07,21,05,24,11.70
2018,07,21,05,25,11.70
2018,07,21,05,26,11.70
2018,07,21,05,27,11.70
2018,07,21,05,28,11.70
2018,07,21,05,29,11.70
2018,07,21,05,30,11.60
2018,07,21,05,31,11.60
2018,07,21,05,32,11.60
2018,07,21,05,33,11.60
2018,07,21,05,34,11.60
2018,07,21,05,35,11.60
2018,07,21,05,36,11.50
2018,07,21,05,37,11.50
2018,07,21,05,38,11.50
2018,07,21,05,39,11.40
2018,07,21,05,40,11.40
2018,07,21,05,41,11.40
2018,07,21,05,42,11.40
2018,07,21,05,43,11.40
2018,07,21,05,44,11.40
2018,07,21,05,45,11.40
2018,07,21,05,46,11.40
2018,07,21,05,47,11.40
2018,07,21,05,48,11.40
2018,07,21,05,49,11.40
2018,07,21,05,50,11.40
2018,07,21,05,51,11.40
2018,07,21,05,52,11.50
2018,07,21,05,53,11.50
2018,07,21,05,54,11.50
2018,07,21,05,55,11.60
2018,07,21,05,56,11.60
2018,07,21,05,57,11.60
2018,07,21,05,58,11.60
2018,07,21,05,59,11.60
2018,07,21,06,00,11.60
2018,07,21,06,01,11.60
2018,07,21,06,02,11.60
2018,07,21,06,03,11.60
2018,07,21,06,04,11.60
2018,07,21,06,05,11.60
2018,07,21,06,06,11.60
2018,07,21,06,07,11.60
2018,07,21,06,08,11.60
2018,07,21,06,09,11.70
2018,07,21,06,10,11.70
2018,07,21,06,11,11.70
2018,07,21,06,12,11.70
2018,07,21,06,13,11.80
2018,07,21,06,14,11.80
2018,07,21,06,15,11.90
2018,07,21,06,16,11.90
2018,07,21,06,17,11.90
2018,07,21,06,18,11.90
2018,07,21,06,19,12.00
2018,07,21,06,20,12.10
2018,07,21,06,21,12.10
2018,07,21,06,22,12.20
2018,07,21,06,23,12.20
2018,07,21,06,24,12.30
2018,07,21,06,25,12.30
2018,07,21,06,26,12.40
2018,07,21,06,27,12.50
2018,07,21,06,28,12.60
2018,07,21,06,29,12.60
2018,07,21,06,30,12.70
2018,07,21,06,31,12.80
2018,07,21,06,32,12.90
2018,07,21,06,33,13.00
2018,07,21,06,34,13.00
2018,07,21,06,35,13.10
2018,07,21,06,36,13.20
2018,07,21,06,37,13.20
2018,07,21,06,38,13.30
2018,07,21,06,39,13.30
2018,07,21,06,40,13.40
2018,07,21,06,41,13.50
2018,07,21,06,42,13.50
2018,07,21,06,43,13.60
2018,07,21,06,44,13.70
2018,07,21,06,45,13.70
2018,07,21,06,46,13.80
2018,07,21,06,47,13.90
2018,07,21,06,48,13.90
2018,07,21,06,49,14.00
2018,07,21,06,50,14.10
2018,07,21,06,51,14.20
2018,07,21,06,52,14.20
2018,07,21,06,53,14.30
2018,07,21,06,54,14.40
2018,07,21,06,55,14.40
2018,07,21,06,56,14.50
2018,07,21,06,57,14.60
2018,07,21,06,58,14.60
2018,07,21,06,59,14.60
2018,07,21,07,00,14.70
2018,07,21,07,01,14.70
2018,07,21,07,02,14.70
2018,07,21,07,03,14.70
2018,07,21,07,04,14.80
2018,07,21,07,05,14.80
2018,07,21,07,06,14.80
2018,07,21,07,07,14.80
2018,07,21,07,08,14.80
2018,07,21,07,09,14.80
2018,07,21,07,10,14.90
2018,07,21,07,11,14.90
2018,07,21,07,12,14.90
2018,07,21,07,13,14.90
2018,07,21,07,14,15.00
2018,07,21,07,15,15.00
2018,07,21,07,16,15.10
2018,07,21,07,17,15.10
2018,07,21,07,18,15.10
2018,07,21,07,19,15.20
2018,07,21,07,20,15.30
2018,07,21,07,21,15.30
2018,07,21,07,22,15.40
2018,07,21,07,23,15.40
2018,07,21,07,24,15.40
2018,07,21,07,25,15.40
2018,07,21,07,26,15.40
2018,07,21,07,27,15.40
2018,07,21,07,28,15.50
2018,07,21,07,29,15.50
2018,07,21,07,30,15.50
2018,07,21,07,31,15.60
2018,07,21,07,32,15.60
2018,07,21,07,33,15.70
2018,07,21,07,34,15.70
2018,07,21,07,35,15.70
2018,07,21,07,36,15.70
2018,07,21,07,37,15.70
2018,07,21,07,38,15.80
2018,07,21,07,39,15.80
2018,07,21,07,40,15.80
2018,07,21,07,41,15.90
2018,07,21,07,42,15.90
2018,07,21,07,43,16.00
2018,07,21,07,44,16.10
2018,07,21,07,45,16.00
2018,07,21,07,46,15.90
2018,07,21,07,47,15.90
2018,07,21,07,48,15.90
2018,07,21,07,49,15.90
2018,07,21,07,50,15.90
2018,07,21,07,51,15.90
2018,07,21,07,52,15.90
2018,07,21,07,53,15.90
2018,07,21,07,54,15.90
2018,07,21,07,55,15.90
2018,07,21,07,56,15.90
2018,07,21,07,57,16.00
2018,07,21,07,58,16.00
2018,07,21,07,59,16.10
2018,07,21,08,00,16.20
2018,07,21,08,01,16.30
2018,07,21,08,02,16.30
2018,07,21,08,03,16.40
2018,07,21,08,04,16.50
2018,07,21,08,05,16.50
2018,07,21,08,06,16.50
2018,07,21,08,07,16.60
2018,07,21,08,08,16.50
2018,07,21,08,09,16.50
2018,07,21,08,10,16.50
2018,07,21,08,11,16.50
2018,07,21,08,12,16.50
2018,07,21,08,13,16.60
2018,07,21,08,14,16.60
2018,07,21,08,15,16.60
2018,07,21,08,16,16.70
2018,07,21,08,17,16.70
2018,07,21,08,18,16.70
2018,07,21,08,19,16.60
2018,07,21,08,20,16.50
2018,07,21,08,21,16.50
2018,07,21,08,22,16.50
2018,07,21,08,23,16.40
2018,07,21,08,24,16.40
2018,07,21,08,25,16.40
2018,07,21,08,26,16.50
2018,07,21,08,27,16.50
2018,07,21,08,28,16.60
2018,07,21,08,29,16.60
2018,07,21,08,30,16.60
2018,07,21,08,31,16.60
2018,07,21,08,32,16.70
2018,07,21,08,33,16.70
2018,07,21,08,34,16.80
2018,07,21,08,35,16.90
2018,07,21,08,36,16.90
2018,07,21,08,37,16.90
2018,07,21,08,38,17.00
2018,07,21,08,39,17.00
2018,07,21,08,40,17.10
2018,07,21,08,41,17.10
2018,07,21,08,42,17.20
2018,07,21,08,43,17.20
2018,07,21,08,44,17.30
2018,07,21,08,45,17.40
2018,07,21,08,46,17.50
2018,07,21,08,47,17.50
2018,07,21,08,48,17.50
2018,07,21,08,49,17.40
2018,07,21,08,50,17.30
2018,07,21,08,51,17.30
2018,07,21,08,52,17.30
2018,07,21,08,53,17.30
2018,07,21,08,54,17.30
2018,07,21,08,55,17.30
2018,07,21,08,56,17.30
2018,07,21,08,57,17.40
2018,07,21,08,58,17.40
2018,07,21,08,59,17.40
2018,07,21,09,00,17.40
2018,07,21,09,01,17.40
2018,07,21,09,02,17.40
2018,07,21,09,03,17.40
2018,07,21,09,04,17.40
2018,07,21,09,05,17.50
2018,07,21,09,06,17.40
2018,07,21,09,07,17.40
2018,07,21,09,08,17.30
2018,07,21,09,09,17.30
2018,07,21,09,10,17.30
2018,07,21,09,11,17.30
2018,07,21,09,12,17.30
2018,07,21,09,13,17.30
2018,07,21,09,14,17.30
2018,07,21,09,15,17.30
2018,07,21,09,16,17.40
2018,07,21,09,17,17.40
2018,07,21,09,18,17.50
2018,07,21,09,19,17.60
2018,07,21,09,20,17.50
2018,07,21,09,21,17.50
2018,07,21,09,22,17.50
2018,07,21,09,23,17.40
2018,07,21,09,24,17.40
2018,07,21,09,25,17.40
2018,07,21,09,26,17.30
2018,07,21,09,27,17.20
2018,07,21,09,28,17.10
2018,07,21,09,29,17.00
2018,07,21,09,30,16.90
2018,07,21,09,31,16.90
2018,07,21,09,32,16.80
2018,07,21,09,33,16.80
2018,07,21,09,34,16.80
2018,07,21,09,35,16.80
2018,07,21,09,36,16.90
2018,07,21,09,37,16.90
2018,07,21,09,38,17.00
2018,07,21,09,39,17.10
2018,07,21,09,40,17.10
2018,07,21,09,41,17.20
2018,07,21,09,42,17.20
2018,07,21,09,43,17.20
2018,07,21,09,44,17.30
2018,07,21,09,45,17.40
2018,07,21,09,46,17.40
2018,07,21,09,47,17.40
2018,07,21,09,48,17.50
2018,07,21,09,49,17.40
2018,07,21,09,50,17.40
2018,07,21,09,51,17.50
2018,07,21,09,52,17.50
2018,07,21,09,53,17.60
2018,07,21,09,54,17.60
2018,07,21,09,55,17.60
2018,07,21,09,56,17.60
2018,07,21,09,57,17.60
2018,07,21,09,58,17.60
2018,07,21,09,59,17.70
2018,07,21,10,00,17.70
2018,07,21,10,01,17.80
2018,07,21,10,02,18.00
2018,07,21,10,03,18.10
2018,07,21,10,04,18.20
2018,07,21,10,05,18.30
2018,07,21,10,06,18.30
2018,07,21,10,07,18.30
2018,07,21,10,08,18.30
2018,07,21,10,09,18.40
2018,07,21,10,10,18.30
2018,07,21,10,11,18.20
2018,07,21,10,12,18.10
2018,07,21,10,13,18.10
2018,07,21,10,14,18.10
2018,07,21,10,15,18.10
2018,07,21,10,16,18.10
2018,07,21,10,17,18.10
2018,07,21,10,18,18.00
2018,07,21,10,19,17.90
2018,07,21,10,20,17.80
2018,07,21,10,21,17.70
2018,07,21,10,22,17.70
2018,07,21,10,23,17.70
2018,07,21,10,24,17.70
2018,07,21,10,25,17.70
2018,07,21,10,26,17.80
2018,07,21,10,27,17.80
2018,07,21,10,28,17.80
2018,07,21,10,29,17.70
2018,07,21,10,30,17.70
2018,07,21,10,31,17.80
2018,07,21,10,32,17.80
2018,07,21,10,33,17.80
2018,07,21,10,34,17.80
2018,07,21,10,35,17.80
2018,07,21,10,36,17.70
2018,07,21,10,37,17.70
2018,07,21,10,38,17.70
2018,07,21,10,39,17.70
2018,07,21,10,40,17.70
2018,07,21,10,41,17.70
2018,07,21,10,42,17.60
2018,07,21,10,43,17.60
2018,07,21,10,44,17.70
2018,07,21,10,45,17.80
2018,07,21,10,46,17.80
2018,07,21,10,47,17.80
2018,07,21,10,48,17.70
2018,07,21,10,49,17.70
2018,07,21,10,50,17.70
2018,07,21,10,51,17.70
2018,07,21,10,52,17.60
2018,07,21,10,53,17.60
2018,07,21,10,54,17.60
2018,07,21,10,55,17.60
2018,07,21,10,56,17.60
2018,07,21,10,57,17.60
2018,07,21,10,58,17.70
2018,07,21,10,59,17.70
2018,07,21,11,00,17.80
2018,07,21,11,01,17.80
2018,07,21,11,02,17.90
2018,07,21,11,03,17.90
2018,07,21,11,04,17.90
2018,07,21,11,05,17.90
2018,07,21,11,06,18.00
2018,07,21,11,07,18.00
2018,07,21,11,08,18.00
2018,07,21,11,09,18.10
2018,07,21,11,10,18.10
2018,07,21,11,11,18.10
2018,07,21,11,12,18.10
2018,07,21,11,13,18.10
2018,07,21,11,14,18.10
2018,07,21,11,15,18.00
2018,07,21,11,16,18.00
2018,07,21,11,17,18.10
2018,07,21,11,18,18.10
2018,07,21,11,19,18.10
2018,07,21,11,20,18.10
2018,07,21,11,21,18.10
2018,07,21,11,22,18.10
2018,07,21,11,23,18.10
2018,07,21,11,24,18.20
2018,07,21,11,25,18.20
2018,07,21,11,26,18.20
2018,07,21,11,27,18.20
2018,07,21,11,28,18.20
2018,07,21,11,29,18.20
2018,07,21,11,30,18.20
2018,07,21,11,31,18.20
2018,07,21,11,32,18.20
2018,07,21,11,33,18.20
2018,07,21,11,34,18.20
2018,07,21,11,35,18.20
2018,07,21,11,36,18.20
2018,07,21,11,37,18.30
2018,07,21,11,38,18.20
2018,07,21,11,39,18.20
2018,07,21,11,40,18.10
2018,07,21,11,41,18.20
2018,07,21,11,42,18.20
2018,07,21,11,43,18.20
2018,07,21,11,44,18.20
2018,07,21,11,45,18.20
2018,07,21,11,46,18.10
2018,07,21,11,47,18.10
2018,07,21,11,48,18.10
2018,07,21,11,49,18.10
2018,07,21,11,50,18.10
2018,07,21,11,51,18.10
2018,07,21,11,52,18.10
2018,07,21,11,53,18.10
2018,07,21,11,54,18.10
2018,07,21,11,55,18.20
2018,07,21,11,56,18.30
2018,07,21,11,57,18.30
2018,07,21,11,58,18.40
2018,07,21,11,59,18.40
2018,07,21,12,00,18.40
2018,07,21,12,01,18.40
2018,07,21,12,02,18.50
2018,07,21,12,03,18.50
2018,07,21,12,04,18.60
2018,07,21,12,05,18.60
2018,07,21,12,06,18.50
2018,07,21,12,07,18.50
2018,07,21,12,08,18.40
2018,07,21,12,09,18.40
2018,07,21,12,10,18.30
2018,07,21,12,11,18.20
2018,07,21,12,12,18.10
2018,07,21,12,13,18.10
2018,07,21,12,14,18.10
2018,07,21,12,15,18.20
2018,07,21,12,16,18.10
2018,07,21,12,17,18.10
2018,07,21,12,18,18.10
2018,07,21,12,19,18.10
2018,07,21,12,20,18.10
2018,07,21,12,21,18.10
2018,07,21,12,22,18.10
2018,07,21,12,23,18.10
2018,07,21,12,24,18.10
2018,07,21,12,25,18.10
2018,07,21,12,26,18.10
2018,07,21,12,27,18.10
2018,07,21,12,28,18.10
2018,07,21,12,29,18.10
2018,07,21,12,30,18.10
2018,07,21,12,31,18.10
2018,07,21,12,32,18.00
2018,07,21,12,33,18.10
2018,07,21,12,34,18.10
2018,07,21,12,35,18.10
2018,07,21,12,36,18.10
2018,07,21,12,37,18.20
2018,07,21,12,38,18.30
2018,07,21,12,39,18.30
2018,07,21,12,40,18.30
2018,07,21,12,41,18.40
2018,07,21,12,42,18.40
2018,07,21,12,43,18.50
2018,07,21,12,44,18.60
2018,07,21,12,45,18.60
2018,07,21,12,46,18.70
2018,07,21,12,47,18.70
2018,07,21,12,48,18.70
2018,07,21,12,49,18.80
2018,07,21,12,50,18.90
2018,07,21,12,51,18.90
2018,07,21,12,52,18.90
2018,07,21,12,53,18.90
2018,07,21,12,54,18.90
2018,07,21,12,55,18.90
2018,07,21,12,56,19.00
2018,07,21,12,57,19.10
2018,07,21,12,58,19.10
2018,07,21,12,59,19.10
2018,07,21,13,00,19.20
2018,07,21,13,01,19.20
2018,07,21,13,02,19.30
2018,07,21,13,03,19.40
2018,07,21,13,04,19.50
2018,07,21,13,05,19.70
2018,07,21,13,06,19.80
2018,07,21,13,07,20.00
2018,07,21,13,08,20.00
2018,07,21,13,09,20.10
2018,07,21,13,10,20.10
2018,07,21,13,11,20.00
2018,07,21,13,12,20.00
2018,07,21,13,13,19.90
2018,07,21,13,14,19.80
2018,07,21,13,15,19.90
2018,07,21,13,16,19.80
2018,07,21,13,17,19.80
2018,07,21,13,18,19.80
2018,07,21,13,19,19.70
2018,07,21,13,20,19.70
2018,07,21,13,21,19.70
2018,07,21,13,22,19.70
2018,07,21,13,23,19.70
2018,07,21,13,24,19.70
2018,07,21,13,25,19.70
2018,07,21,13,26,19.60
2018,07,21,13,27,19.60
2018,07,21,13,28,19.60
2018,07,21,13,29,19.70
2018,07,21,13,30,19.70
2018,07,21,13,31,19.60
2018,07,21,13,32,19.60
2018,07,21,13,33,19.70
2018,07,21,13,34,19.70
2018,07,21,13,35,19.70
2018,07,21,13,36,19.70
2018,07,21,13,37,19.70
2018,07,21,13,38,19.70
2018,07,21,13,39,19.70
2018,07,21,13,40,19.70
2018,07,21,13,41,19.70
2018,07,21,13,42,19.70
2018,07,21,13,43,19.70
2018,07,21,13,44,19.80
2018,07,21,13,45,19.80
2018,07,21,13,46,19.90
2018,07,21,13,47,19.90
2018,07,21,13,48,19.90
2018,07,21,13,49,19.90
2018,07,21,13,50,20.00
2018,07,21,13,51,20.10
2018,07,21,13,52,20.10
2018,07,21,13,53,20.20
2018,07,21,13,54,20.20
2018,07,21,13,55,20.20
2018,07,21,13,56,20.10
2018,07,21,13,57,20.00
2018,07,21,13,58,20.00
2018,07,21,13,59,20.10
2018,07,21,14,00,20.00
2018,07,21,14,01,20.10
2018,07,21,14,02,20.10
2018,07,21,14,03,20.20
2018,07,21,14,04,20.20
2018,07,21,14,05,20.20
2018,07,21,14,06,20.30
2018,07,21,14,07,20.30
2018,07,21,14,08,20.30
2018,07,21,14,09,20.30
2018,07,21,14,10,20.20
2018,07,21,14,11,20.30
2018,07,21,14,12,20.40
2018,07,21,14,13,20.40
2018,07,21,14,14,20.40
2018,07,21,14,15,20.40
2018,07,21,14,16,20.40
2018,07,21,14,17,20.40
2018,07,21,14,18,20.50
2018,07,21,14,19,20.60
2018,07,21,14,20,20.60
2018,07,21,14,21,20.60
2018,07,21,14,22,20.70
2018,07,21,14,23,20.70
2018,07,21,14,24,20.80
2018,07,21,14,25,20.70
2018,07,21,14,26,20.70
2018,07,21,14,27,20.80
2018,07,21,14,28,20.80
2018,07,21,14,29,20.80
2018,07,21,14,30,20.70
2018,07,21,14,31,20.80
2018,07,21,14,32,20.90
2018,07,21,14,33,20.90
2018,07,21,14,34,20.80
2018,07,21,14,35,20.80
2018,07,21,14,36,20.90
2018,07,21,14,37,21.00
2018,07,21,14,38,21.10
2018,07,21,14,39,21.20
2018,07,21,14,40,21.30
2018,07,21,14,41,21.40
2018,07,21,14,42,21.40
2018,07,21,14,43,21.50
2018,07,21,14,44,21.50
2018,07,21,14,45,21.60
2018,07,21,14,46,21.60
2018,07,21,14,47,21.70
2018,07,21,14,48,21.70
2018,07,21,14,49,21.60
2018,07,21,14,50,21.50
2018,07,21,14,51,21.30
2018,07,21,14,52,21.30
2018,07,21,14,53,21.20
2018,07,21,14,54,21.20
2018,07,21,14,55,21.10
2018,07,21,14,56,21.10
2018,07,21,14,57,21.10
2018,07,21,14,58,21.20
2018,07,21,14,59,21.10
2018,07,21,15,00,21.10
2018,07,21,15,01,21.10
2018,07,21,15,02,21.30
2018,07,21,15,03,21.40
2018,07,21,15,04,21.50
2018,07,21,15,05,21.50
2018,07,21,15,06,21.60
2018,07,21,15,07,21.70
2018,07,21,15,08,21.80
2018,07,21,15,09,21.80
2018,07,21,15,10,21.80
2018,07,21,15,11,21.80
2018,07,21,15,12,21.80
2018,07,21,15,13,21.70
2018,07,21,15,14,21.70
2018,07,21,15,15,21.80
2018,07,21,15,16,21.90
2018,07,21,15,17,22.00
2018,07,21,15,18,22.00
2018,07,21,15,19,22.00
2018,07,21,15,20,22.00
2018,07,21,15,21,22.00
2018,07,21,15,22,22.10
2018,07,21,15,23,22.10
2018,07,21,15,24,22.20
2018,07,21,15,25,22.20
2018,07,21,15,26,22.30
2018,07,21,15,27,22.30
2018,07,21,15,28,22.40
2018,07,21,15,29,22.50
2018,07,21,15,30,22.60
2018,07,21,15,31,22.70
2018,07,21,15,32,22.80
2018,07,21,15,33,22.90
2018,07,21,15,34,22.90
2018,07,21,15,35,22.90
2018,07,21,15,36,22.80
2018,07,21,15,37,22.80
2018,07,21,15,38,22.70
2018,07,21,15,39,22.80
2018,07,21,15,40,22.90
2018,07,21,15,41,22.90
2018,07,21,15,42,22.80
2018,07,21,15,43,22.80
2018,07,21,15,44,22.90
2018,07,21,15,45,23.00
2018,07,21,15,46,23.10
2018,07,21,15,47,23.10
2018,07,21,15,48,23.20
2018,07,21,15,49,23.30
2018,07,21,15,50,23.30
2018,07,21,15,51,23.30
2018,07,21,15,52,23.30
2018,07,21,15,53,23.30
2018,07,21,15,54,23.30
2018,07,21,15,55,23.30
2018,07,21,15,56,23.30
2018,07,21,15,57,23.40
2018,07,21,15,58,23.50
2018,07,21,15,59,23.60
2018,07,21,16,00,23.70
2018,07,21,16,01,23.80
2018,07,21,16,02,23.80
2018,07,21,16,03,23.90
2018,07,21,16,04,23.90
2018,07,21,16,05,23.90
2018,07,21,16,06,23.80
2018,07,21,16,07,23.80
2018,07,21,16,08,23.70
2018,07,21,16,09,23.70
2018,07,21,16,10,23.70
2018,07,21,16,11,23.70
2018,07,21,16,12,23.60
2018,07,21,16,13,23.50
2018,07,21,16,14,23.40
2018,07,21,16,15,23.30
2018,07,21,16,16,23.20
2018,07,21,16,17,23.20
2018,07,21,16,18,23.10
2018,07,21,16,19,23.10
2018,07,21,16,20,23.20
2018,07,21,16,21,23.20
2018,07,21,16,22,23.30
2018,07,21,16,23,23.30
2018,07,21,16,24,23.30
2018,07,21,16,25,23.30
2018,07,21,16,26,23.30
2018,07,21,16,27,23.30
2018,07,21,16,28,23.30
2018,07,21,16,29,23.30
2018,07,21,16,30,23.40
2018,07,21,16,31,23.40
2018,07,21,16,32,23.50
2018,07,21,16,33,23.50
2018,07,21,16,34,23.60
2018,07,21,16,35,23.70
2018,07,21,16,36,23.90
2018,07,21,16,37,24.00
2018,07,21,16,38,24.10
2018,07,21,16,39,24.10
2018,07,21,16,40,24.00
2018,07,21,16,41,24.00
2018,07,21,16,42,24.00
2018,07,21,16,43,23.90
2018,07,21,16,44,23.90
2018,07,21,16,45,23.80
2018,07,21,16,46,23.80
2018,07,21,16,47,23.80
2018,07,21,16,48,23.80
2018,07,21,16,49,23.90
2018,07,21,16,50,23.90
2018,07,21,16,51,23.90
2018,07,21,16,52,23.90
2018,07,21,16,53,23.90
2018,07,21,16,54,23.90
2018,07,21,16,55,23.90
2018,07,21,16,56,23.90
2018,07,21,16,57,23.90
2018,07,21,16,58,23.90
2018,07,21,16,59,23.80
2018,07,21,17,00,23.80
2018,07,21,17,01,23.70
2018,07,21,17,02,23.70
2018,07,21,17,03,23.70
2018,07,21,17,04,23.70
2018,07,21,17,05,23.60
2018,07,21,17,06,23.60
2018,07,21,17,07,23.60
2018,07,21,17,08,23.60
2018,07,21,17,09,23.50
2018,07,21,17,10,23.60
2018,07,21,17,11,23.60
2018,07,21,17,12,23.60
2018,07,21,17,13,23.60
2018,07,21,17,14,23.50
2018,07,21,17,15,23.50
2018,07,21,17,16,23.50
2018,07,21,17,17,23.50
2018,07,21,17,18,23.60
2018,07,21,17,19,23.60